Regional Weather Roundup
Issued by NWS

Home | Current Version | Previous Version | Text Only | Print | Product List | Glossary On
Versions: 1 2 3 4 5 6 7 8 9 10 11 12 13 14 15 16 17 18 19 20 21 22 23 24 25 26 27 28 29 30 31 32 33 34 35 36 37 38 39 40 41 42 43 44 45 46 47 48 49 50
000
ASUS46 KLOX 171612
RWRCA

SOUTHERN CALIFORNIA WEATHER ROUNDUP
NATIONAL WEATHER SERVICE OXNARD CALIFORNIA
900 AM PDT WED SEP 17 2014

NOTE: "FAIR" INDICATES FEW OR NO CLOUDS BELOW 12,000 FEET WITH NO
SIGNIFICANT WEATHER AND/OR OBSTRUCTIONS TO VISIBILITY.

  -  STATIONS PRECEEDED BY AN ASTERISK (*) ARE NOT NWS OR FAA
     STATIONS AND ARE NOT SUBJECT TO NWS AND FAA QUALITY CONTROL.

CAZ041-042-087-171700-
LA AND ORANGE COUNTY COASTAL AREAS


CITY           SKY/WX    TMP DP  RH WIND       PRES   REMARKS
L.A. DOWNTOWN  SUNNY     86  63  45 CALM      29.74R
L.A. AIRPORT   MOSUNNY   84  61  45 E5        29.75R
LONG BEACH     SUNNY     84  64  50 CALM      29.74R

CITY           SKY/WX    TMP DP  RH WIND       PRES   REMARKS
AVALON           N/A     81 N/A N/A MISG        N/A
FULLERTON      SUNNY     88  60  38 CALM      29.73S
*GETTY CENTER    N/A    N/A N/A N/A E3          N/A
HAWTHORNE      SUNNY     84  62  47 CALM      29.75R
*LEO CARRILLO    N/A     79  59  50 E2          N/A
*LOS ALAMITOS  SUNNY     82  67  59 SE1       29.74S
*REDONDO BEACH   N/A     80  64  58 CALM      29.74S
SANTA ANA      SUNNY     89  60  37 CALM      29.74S
STA MONICA APT SUNNY     82  64  54 CALM      29.75R
*STA MON PIER    N/A     75  68  78 CALM      29.74
TORRANCE       SUNNY     88  64  45 CALM      29.75S
*UCLA            N/A     86  61  42 CALM      29.73S

$$

CAZ547-548-048-171700-
LA COUNTY VALLEYS AND INLAND EMPIRE


CITY           SKY/WX    TMP DP  RH WIND       PRES   REMARKS
BURBANK        SUNNY     87  59  38 CALM      29.77R
VAN NUYS       SUNNY     88  59  37 CALM      29.77S

CITY           SKY/WX    TMP DP  RH WIND       PRES   REMARKS
CORONA AIRPORT SUNNY     87  67  51 CALM      29.78R HX  90
*CHATSWORTH      N/A     90  65  43 NE3       29.70S HX  92
CHINO          SUNNY     88  67  49 CALM      29.79R HX  91
*CLAREMONT       N/A     90  62  38 S2          N/A  HX  90
MARCH AFB      SUNNY     85  65  49 CALM      29.83R
*NORTHRIDGE      N/A     90  57  33 E1          N/A
ONTARIO        MOSUNNY   88  65  46 CALM      29.79S HX  90
*PASADENA        N/A     90  66  45 CALM        N/A  HX  92
RIVERSIDE      SUNNY     88  64  44 CALM      29.79R
SAN BERNARDINO SUNNY     84  57  39 CALM      29.81S
*SAN GABRIEL     N/A     90  60  35 CALM      29.70S
*SAN RAFAEL HI   N/A     93  66  40 S6          N/A  HX  96
*SAUGUS          N/A     90  53  27 CALM        N/A
*WHITEMAN AP   SUNNY     90  59  35 CALM      29.82R
*WOODLAND HILL   N/A     90  57  33 NE2         N/A

$$

CAZ054-055-171700-
LA AND SAN BERNARDINO COUNTY MOUNTAINS


CITY           SKY/WX    TMP DP  RH WIND       PRES   REMARKS
*ACTON           N/A     72  55  55 N5          N/A
*BIG BEAR AIRP SUNNY     63  52  67 CALM      30.19R
*BIG PINES       N/A     71  48  43 CALM        N/A
MT WILSON NWS    N/A     75  59  57 SW1         N/A
SANDBERG       SUNNY     81  38  21 SW9       30.03S

$$

CAZ028-029-059-060-099-171700-
ANTELOPE VALLEY AND SURROUNDING AREAS


CITY           SKY/WX    TMP DP  RH WIND       PRES   REMARKS
LANCASTER      SUNNY     83  45  26 E5        29.88S
PALMDALE       SUNNY     81  47  30 NE6       29.90R

CITY           SKY/WX    TMP DP  RH WIND       PRES   REMARKS
29 PALMS       SUNNY     81  62  52 CALM      29.95S
BARSTOW/DAGGET SUNNY     82  62  50 E6        29.86F
BISHOP         SUNNY     75  45  34 CALM      29.98F
CHINA LAKE     SUNNY     82  51  34 SW6       29.86S
EDWARDS AFB    MOSUNNY   79  44  28 SE2       29.87R
MOJAVE         FAIR      82  43  24 CALM      29.90S
NEEDLES        SUNNY     85  68  56 CALM      29.83R
VICTORVILLE    SUNNY     79  63  57 SE8       29.92S

$$

CAZ039-040-171700-
VENTURA AND SANTA BARBARA COUNTY COAST


CITY           SKY/WX    TMP DP  RH WIND       PRES   REMARKS
CAMARILLO      SUNNY     76  62  62 W3        29.74S
NWS OXNARD       N/A     74  64  69 CALM      29.74S
OXNARD AIRPORT SUNNY     71  64  78 W10       29.75R
*POINT MUGU    SUNNY     77  65  66 W9        29.75R
SBA APT/GOLETA SUNNY     72  63  73 SE5       29.74S
*SANTA BARBARA   N/A     76  62  61 W3        29.82S
*VENTURA         N/A     74  64  70 W3        29.78F

$$

CAZ044-045-171700-
VENTURA COUNTY VALLEYS


CITY           SKY/WX    TMP DP  RH WIND       PRES   REMARKS
*SIMI VALLEY     N/A     90  66  44 E3        29.68F HX  92
*OJAI            N/A     88  57  34 CALM      29.68F
*FILLMORE        N/A     87  56  34 CALM      29.64S

$$

CAZ053-171700-
VENTURA COUNTY MOUNTAINS


CITY           SKY/WX    TMP DP  RH WIND       PRES   REMARKS
*LOCKWOOD VLY    N/A     70  41  35 MISG        N/A
*ROSE VALLEY     N/A     77  46  33 MISG        N/A

$$

CAZ034-035-036-171700-
CENTRAL COAST AND SANTA YNEZ VALLEY


CITY           SKY/WX    TMP DP  RH WIND       PRES   REMARKS
SAN LUIS OBISP MOSUNNY   60  58  92 CALM      29.83S FOG
SANTA MARIA    MOSUNNY   61  58  90 W3        29.84R FOG

CITY           SKY/WX    TMP DP  RH WIND       PRES   REMARKS
*CAL POLY SLO    N/A     57  57 100 CALM        N/A
*LOMPOC        CLOUDY    61  55  82 CALM      29.84R
*PISMO BEACH     N/A     61  57  87 W3        29.84R
*SANTA YNEZ    FAIR      64  54  68 CALM      29.83S

$$

CAZ037-038-051-171700-
SAN LUIS OBISPO COUNTY INTERIOR AND CUYAMA VALLEY


CITY           SKY/WX    TMP DP  RH WIND       PRES   REMARKS
*CUYAMA          N/A     75  45  34 NE2       29.73F
PASO ROBLES    SUNNY     65  48  54 CALM      29.84S

$$

CAZ032-033-061-171700-
SOUTHERN DESERTS


CITY           SKY/WX    TMP DP  RH WIND       PRES   REMARKS
BLYTHE         MOSUNNY   83  71  67 CALM      29.78S
IMPERIAL       SUNNY     89  66  46 CALM      29.75R HX  91
PALM SPRINGS   SUNNY     90  66  45 E5        29.80S HX  92
THERMAL        SUNNY     90  69  50 SE3       29.74S HX  94

$$

ELSEWHERE ACROSS THE WESTERN UNITED STATES AND MEXICO


CITY           SKY/WX    TMP DP  RH WIND       PRES   REMARKS
DENVER, CO     PTSUNNY   76  39  26 SW7       30.11S
GRAND CANYON,  MOSUNNY   67  54  63 VRB3      30.21S
HONOLULU, HI   PTCLDY    79  72  78 N6        29.93R
KAHULUI, MAUI  CLEAR     72  66  83 CALM      29.94R
LAKE TAHOE, CA SUNNY     70  36  28 SW10      30.09F
LAS VEGAS, NV  MOSUNNY   84  59  42 CALM      29.87S
MAMMOTH LAKES, FAIR      64  41  42 SE3       30.19S
MEXICO CITY, M PTSUNNY   66  50  55 VRB3      30.37R
PHOENIX, AZ    CLOUDY    84  67  56 NE12      29.81R
PORTLAND, OR   CLOUDY    63  56  78 W5        29.73F
RENO, NV       PTSUNNY   77  35  21 VRB3      29.98S
SALT LAKE CITY MOSUNNY   79  44  28 SE14      29.98S
SAN DIEGO, CA  MOSUNNY   82  68  62 NW6       29.75R
SAN FRANCISCO, MOSUNNY   66  59  78 CALM      29.83S
SAN JOSE, CA   MOSUNNY   65  58  78 CALM      29.83R
SEATTLE, WA    CLOUDY    62  56  80 N3        29.79S
TIJUANA, MEX   SUNNY     91  57  31 NE5       29.78  HX  90

$$

STATION/POSITION TIME  TEMP    WIND        PRES    VSBY  WAVE
                       AIR SEA DIR/SP/G                  HT/PER
                 (UTC) (F)     (DEG/KT/KT) (MB)    (MI)  (FT/S)
POINT ARGUELLO B NOT AVBL
WEST SANTA BARBA 1600   60 61  310/ 21/ 25 1007.6R         5/17
POINT CONCEPTION NOT AVBL
EAST SANTA BARBA 1600   67 66  230/  8/ 10 1007.3S
SANTA MONICA BAY 1600   72 74  310/  6/  8 1007.1R         4/17


USA.gov is the U.S. government's official web portal to all federal, state and local government web resources and services.